Weather reports worldwide

Advertisment
Arroyo Del Ojanco, Spain (8352): temperature & dewpoint: 10.01.2021 06:00:00 - 16.01.2021 06:00:00 (CET)Arroyo Del Ojanco, Spain (8352): wind speed & gusts: 10.01.2021 06:00:00 - 16.01.2021 06:00:00 (CET)Arroyo Del Ojanco, Spain (8352): wind direction: 10.01.2021 06:00:00 - 16.01.2021 06:00:00 (CET)Arroyo Del Ojanco, Spain (8352): reduced air pressure: 10.01.2021 06:00:00 - 16.01.2021 06:00:00 (CET)Arroyo Del Ojanco, Spain (8352): precipitation: 10.01.2021 06:00:00 - 16.01.2021 06:00:00 (CET)
Date & Time tt [°C] td [°C] ff [km/h] ff [kn] fx [km/h] fx [kn] dd ppp [hPa] rr [mm]
16.01.2021 06:00:00 - - - - - - - - -
16.01.2021 05:00:00 0,5 -2,0 - - - - - 1017,9 0,0
16.01.2021 04:00:00 0,3 -2,0 - - - - - 1018,3 0,0
16.01.2021 03:00:00 1,3 -1,7 - - - - - 1018,0 0,0
16.01.2021 02:00:00 0,9 -2,2 - - - - - 1018,2 0,0
16.01.2021 01:00:00 1,8 -2,2 - - - - - 1018,3 -
16.01.2021 00:00:00 2,4 -1,7 - - - - - 1018,4 0,0
15.01.2021 23:00:00 1,9 -2,2 - - - - - 1018,2 0,0
15.01.2021 22:00:00 3,2 -2,5 - - - - - 1018,0 0,0
15.01.2021 21:00:00 4,8 -2,2 - - - - - 1017,7 0,0
15.01.2021 20:00:00 6,9 -1,4 - - - - - 1018,4 0,0
15.01.2021 19:00:00 7,9 -1,4 - - - - - 1017,7 -
15.01.2021 18:00:00 10,9 -1,0 - - - - - 1017,8 0,0
15.01.2021 17:00:00 13,9 -0,3 - - - - - 1017,1 0,0
15.01.2021 16:00:00 13,9 -0,3 - - - - - 1016,4 0,0
15.01.2021 15:00:00 13,4 -0,3 - - - - - 1016,6 0,0
15.01.2021 14:00:00 12,5 0,9 - - - - - 1017,2 0,0
15.01.2021 13:00:00 11,0 1,3 - - - - - 1018,0 -
15.01.2021 12:00:00 8,6 1,5 - - - - - 1018,8 0,0
15.01.2021 11:00:00 5,9 0,2 - - - - - 1018,4 0,0
15.01.2021 10:00:00 1,3 -1,7 - - - - - 1018,3 0,0
15.01.2021 09:00:00 -0,9 -2,7 - - - - - 1018,6 0,0
15.01.2021 08:00:00 0,0 -2,2 - - - - - 1018,2 0,0
15.01.2021 07:00:00 -0,7 -3,0 - - - - - 1018,0 -
15.01.2021 06:00:00 -0,1 -2,2 - - - - - 1018,0 0,0
15.01.2021 05:00:00 -0,1 -2,2 - - - - - 1018,4 0,0
15.01.2021 04:00:00 -0,3 -2,0 - - - - - 1018,6 0,0
15.01.2021 03:00:00 0,5 -1,7 - - - - - 1018,6 0,0
15.01.2021 02:00:00 1,3 -1,0 - - - - - 1018,5 0,0
15.01.2021 01:00:00 1,8 -0,3 - - - - - 1018,3 -
15.01.2021 00:00:00 2,2 0,0 - - - - - 1019,0 0,0
14.01.2021 23:00:00 3,6 0,4 - - - - - 1018,3 0,0
14.01.2021 22:00:00 4,4 0,4 - - - - - 1018,0 0,0
14.01.2021 21:00:00 6,1 0,6 - - - - - 1017,7 0,0
14.01.2021 20:00:00 7,3 -0,5 - - - - - 1017,5 0,0
14.01.2021 19:00:00 9,8 -0,3 - - - - - 1017,4 -
14.01.2021 18:00:00 13,8 -1,4 - - - - - 1016,3 0,0
14.01.2021 17:00:00 15,2 -1,0 - - - - - 1015,7 0,0
14.01.2021 16:00:00 14,6 -1,4 - - - - - 1015,6 0,0
14.01.2021 15:00:00 13,3 -1,2 - - - - - 1016,4 0,0
14.01.2021 14:00:00 12,2 -1,4 - - - - - 1016,5 0,0
14.01.2021 13:00:00 10,2 -0,3 - - - - - 1017,5 -
14.01.2021 12:00:00 7,9 -0,5 - - - - - 1018,1 0,0
14.01.2021 11:00:00 4,2 -1,2 - - - - - 1018,7 0,0
14.01.2021 10:00:00 0,7 -1,4 - - - - - 1018,8 0,0
14.01.2021 09:00:00 -1,3 -3,0 - - - - - 1019,2 0,0
14.01.2021 08:00:00 -1,0 -2,7 - - - - - 1018,9 0,0
14.01.2021 07:00:00 -1,2 -2,7 - - - - - 1019,1 -
14.01.2021 06:00:00 -0,8 -2,7 - - - - - 1019,0 0,0
14.01.2021 05:00:00 -0,3 -2,5 - - - - - 1019,1 0,0
14.01.2021 04:00:00 0,0 -2,7 - - - - - 1019,1 0,0
14.01.2021 03:00:00 1,7 -2,2 - - - - - 1019,4 0,0
14.01.2021 02:00:00 1,4 -2,5 - - - - - 1019,5 0,0
14.01.2021 01:00:00 1,4 -2,7 - - - - - 1019,9 -
14.01.2021 00:00:00 2,5 -2,7 - - - - - 1020,5 0,0
13.01.2021 23:00:00 3,3 -3,3 - - - - - 1020,3 0,0
13.01.2021 22:00:00 4,5 -3,9 - - - - - 1020,2 0,0
13.01.2021 21:00:00 5,4 -4,2 - - - - - 1020,1 0,0
13.01.2021 20:00:00 7,1 -4,2 - - - - - 1019,7 0,0
13.01.2021 19:00:00 8,3 -3,3 - - - - - 1019,6 -
13.01.2021 18:00:00 12,9 -2,2 - - - - - 1019,1 0,0
13.01.2021 17:00:00 14,1 -3,3 - - - - - 1018,5 0,0
13.01.2021 16:00:00 14,1 -3,3 - - - - - 1018,1 0,0
13.01.2021 15:00:00 13,4 -3,3 - - - - - 1018,5 0,0
13.01.2021 14:00:00 12,5 -4,2 - - - - - 1019,0 0,0
13.01.2021 13:00:00 9,8 -2,0 - - - - - 1020,1 -
13.01.2021 12:00:00 7,0 -2,7 - - - - - 1020,7 -
13.01.2021 11:00:00 3,9 -2,2 - - - - - 1020,8 0,0
13.01.2021 10:00:00 0,6 -3,0 - - - - - 1021,2 0,0
13.01.2021 09:00:00 -1,9 -3,9 0 0 0 0 N 1021,1 0,0
13.01.2021 08:00:00 -2,2 -4,5 0 0 0 0 N 1020,8 0,0
13.01.2021 07:00:00 -1,7 -3,9 0 0 0 0 N 1020,3 -
13.01.2021 06:00:00 -1,6 -3,9 0 0 0 0 N 1020,4 0,0
13.01.2021 05:00:00 -1,3 -3,3 0 0 0 0 N 1020,4 0,0
13.01.2021 04:00:00 -1,4 -3,6 0 0 - - N 1021,3 0,0
13.01.2021 03:00:00 -1,3 -3,8 110 59 - - WSW - 0,0
13.01.2021 02:00:00 -0,4 -3,6 0 0 0 0 N 1021,3 0,0
13.01.2021 01:00:00 -0,3 -3,3 0 0 0 0 N 1021,7 -
13.01.2021 00:00:00 0,0 -3,6 0 0 0 0 N 1022,1 0,0
12.01.2021 23:00:00 0,9 -3,3 0 0 0 0 N 1021,6 0,0
12.01.2021 22:00:00 1,9 -2,7 0 0 0 0 N 1021,4 0,0
12.01.2021 21:00:00 2,8 -3,0 0 0 0 0 N 1020,9 0,0
12.01.2021 20:00:00 4,2 -3,0 0 0 0 0 N 1020,4 0,0
12.01.2021 19:00:00 5,3 -3,9 0 0 0 0 N 1019,8 -
12.01.2021 18:00:00 9,4 -2,5 0 0 0 0 N 1019,6 0,0
12.01.2021 17:00:00 10,4 -2,2 0 0 0 0 N 1019,3 0,0
12.01.2021 16:00:00 10,1 -0,7 0 0 0 0 N 1018,8 0,0
12.01.2021 15:00:00 9,4 0,0 0 0 0 0 N 1018,7 0,0
12.01.2021 14:00:00 7,5 -0,3 0 0 0 0 N 1019,0 0,0
12.01.2021 13:00:00 5,7 0,0 0 0 0 0 N 1019,7 -
12.01.2021 12:00:00 3,2 -0,5 0 0 0 0 N 1020,6 0,0
12.01.2021 11:00:00 1,2 -1,0 0 0 0 0 N 1020,5 0,0
12.01.2021 10:00:00 -1,3 -2,2 0 0 0 0 N 1020,6 0,0
12.01.2021 09:00:00 -2,9 -3,6 0 0 0 0 N 1020,2 0,0
12.01.2021 08:00:00 -3,3 -4,2 0 0 0 0 N 1019,7 0,0
12.01.2021 07:00:00 -2,5 -3,3 0 0 0 0 N 1018,9 -
12.01.2021 06:00:00 -1,6 -2,2 0 0 0 0 N 1018,0 0,0
12.01.2021 05:00:00 -2,3 -3,0 0 0 0 0 N 1017,8 0,0
12.01.2021 04:00:00 -2,1 -3,0 0 0 0 0 N 1018,2 0,0
12.01.2021 03:00:00 -1,7 -2,7 0 0 0 0 N 1017,8 0,0
12.01.2021 02:00:00 -0,5 -1,7 0 0 0 0 N 1017,4 0,0
12.01.2021 01:00:00 -0,4 -1,7 0 0 0 0 N 1017,0 -
12.01.2021 00:00:00 -0,3 -2,0 0 0 0 0 N 1016,9 0,0
11.01.2021 23:00:00 0,4 -2,0 0 0 0 0 N 1016,5 0,0
11.01.2021 22:00:00 1,6 -1,4 0 0 0 0 N 1015,4 0,0
11.01.2021 21:00:00 2,3 -1,0 0 0 0 0 N 1014,5 0,0
11.01.2021 20:00:00 2,9 -0,7 0 0 0 0 N 1014,0 0,0
11.01.2021 19:00:00 4,5 0,2 0 0 0 0 N 1012,7 -
11.01.2021 18:00:00 7,2 0,2 0 0 0 0 N 1011,8 0,0
11.01.2021 17:00:00 8,1 0,0 0 0 0 0 N 1011,0 0,0
11.01.2021 16:00:00 9,4 -0,3 0 0 0 0 N 1010,2 0,0
11.01.2021 15:00:00 8,7 0,0 0 0 0 0 N 1009,8 0,0
11.01.2021 14:00:00 8,4 -0,5 0 0 - - N 1009,4 0,0
11.01.2021 13:00:00 7,3 0,6 0 0 0 0 N 1009,7 -
11.01.2021 12:00:00 5,5 0,6 0 0 0 0 N 1009,9 0,0
11.01.2021 11:00:00 3,3 -0,5 0 0 0 0 N 1009,7 0,0
11.01.2021 10:00:00 0,7 -0,5 0 0 0 0 N 1009,0 0,0
11.01.2021 09:00:00 -1,4 -2,5 0 0 - - N 1008,3 0,0
11.01.2021 08:00:00 -0,9 -2,2 0 0 0 0 N 1007,7 0,0
11.01.2021 07:00:00 -0,4 -1,7 0 0 0 0 N 1006,9 -
11.01.2021 06:00:00 -0,1 -2,0 0 0 0 0 N 1006,4 0,0
11.01.2021 05:00:00 0,7 -1,4 0 0 0 0 N 1006,3 0,0
11.01.2021 04:00:00 0,3 -1,4 0 0 0 0 N 1006,4 0,0
11.01.2021 03:00:00 0,5 -1,4 0 0 0 0 N 1006,2 0,0
11.01.2021 02:00:00 0,8 -0,7 0 0 0 0 N 1005,2 0,0
11.01.2021 01:00:00 0,9 -0,7 83 45 - - WSW - -
11.01.2021 00:00:00 1,7 -0,3 0 0 0 0 N 1005,2 0,0
10.01.2021 23:00:00 2,4 0,2 0 0 0 0 N 1004,6 0,0
10.01.2021 22:00:00 2,7 0,9 0 0 0 0 N 1004,3 0,0
10.01.2021 21:00:00 3,0 1,1 0 0 0 0 N 1004,0 0,0
10.01.2021 20:00:00 4,0 1,1 0 0 0 0 N 1003,3 0,0
10.01.2021 19:00:00 5,4 0,9 0 0 0 0 N 1002,2 -
10.01.2021 18:00:00 8,4 -2,5 0 0 0 0 N 1001,9 0,0
10.01.2021 17:00:00 10,4 -2,0 0 0 0 0 N 1000,8 0,0
10.01.2021 16:00:00 10,2 -1,0 0 0 0 0 N 1000,0 0,0
10.01.2021 15:00:00 9,5 -0,7 0 0 0 0 N 999,7 0,0
10.01.2021 14:00:00 8,8 -0,7 0 0 0 0 N 999,5 0,0
10.01.2021 13:00:00 8,2 -0,3 0 0 0 0 N 999,6 -
10.01.2021 12:00:00 7,2 1,7 0 0 0 0 N 999,8 0,0
10.01.2021 11:00:00 4,5 2,3 0 0 0 0 N 999,7 0,0
10.01.2021 10:00:00 1,7 0,9 0 0 0 0 N 999,1 0,0
10.01.2021 09:00:00 0,1 -0,7 0 0 0 0 N 998,9 0,0
10.01.2021 08:00:00 1,0 0,2 0 0 0 0 N 997,6 0,0
10.01.2021 07:00:00 0,8 0,0 0 0 0 0 N 997,3 -
10.01.2021 06:00:00 1,0 0,0 0 0 0 0 N 996,7 0,0

tt = temperature
td = dewpoint
ff = wind speed
fx = gusts
dd = wind direction
ppp = reduced air pressure
rr = precipitation

Next stations